Location: doobydoo
(53.3403°N, 2.6908°W)
Time: 01:22:28
(UTC+00:00)

ISS - Pass Details

Date: 28 November 2021
Orbit: 414 x 422 km, 51.6° (Epoch: 16 January)

Event Time Altitude Azimuth Distance (km) Brightness Sun altitude
Rises 16:26:38 0° 236° (WSW) 2,389 3.2 -4.3°
Reaches altitude 10° 16:28:49 10° 229° (SW) 1,523 0.9 -4.6°
Maximum altitude 16:32:02 39° 159° (SSE) 657 -2.7 -5.0°
Drops below altitude 10° 16:35:15 10° 89° (E) 1,522 -1.5 -5.4°
Enters shadow 16:36:13 - 85° (E) 1,901 -1.0 -5.6°
